AKST,Max TemperatureF,Mean TemperatureF,Min TemperatureF,Max Dew PointF,MeanDew PointF,Min DewpointF,Max Humidity, Mean Humidity, Min Humidity, Max Sea Level PressureIn, Mean Sea Level PressureIn, Min Sea Level PressureIn, Max VisibilityMiles, Mean VisibilityMiles, Min VisibilityMiles, Max Wind SpeedMPH, Mean Wind SpeedMPH, Max Gust SpeedMPH,PrecipitationIn, CloudCover, Events, WindDirDegrees
2013-1-1,48,42,35,34,30,25,87,66,40,30.24,29.95,29.75,10,10,7,31,11,48,0.00,7,,137
2013-1-2,37,35,33,34,31,28,93,86,75,29.99,29.86,29.81,10,6,0,13,4,16,0.00,8,,108
2013-1-3,35,34,32,30,30,28,93,86,81,30.01,29.88,29.76,10,6,0,7,1,,0.00,8,,43
2013-1-4,33,32,32,30,30,28,87,86,81,30.07,29.97,29.80,10,9,1,7,1,,0.00,8,,338
2013-1-5,37,34,32,34,30,28,87,86,81,29.90,29.71,29.63,10,8,0,12,2,,0.00,7,,82
2013-1-6,39,34,30,34,31,27,93,80,70,29.69,29.61,29.40,10,10,2,14,6,16,0.00,7,,133
2013-1-7,37,35,33,34,31,28,93,85,81,29.64,29.46,29.34,10,7,1,13,5,,0.00,8,,122
2013-1-8,37,34,32,32,30,28,87,81,75,29.74,29.67,29.64,10,10,1,14,7,16,0.00,7,,112
2013-1-9,33,27,21,28,23,16,93,84,80,30.17,29.98,29.74,10,10,8,5,1,,0.00,2,,2
2013-1-10,30,29,28,28,26,25,93,86,80,30.25,30.18,30.15,10,6,1,8,4,,0.00,8,,335
2013-1-11,33,32,30,30,28,27,93,85,80,30.27,30.21,30.17,10,5,2,0,0,,0.00,8,,-1
2013-1-12,33,33,33,30,30,30,87,87,87,30.38,30.35,30.27,10,4,1,6,0,,0.00,8,,339
2013-1-13,41,36,33,37,31,30,93,87,81,30.34,30.28,30.16,10,4,1,15,3,22,0.00,8,,342
2013-1-14,42,42,41,39,38,37,93,85,81,30.24,30.19,30.14,10,9,3,15,8,20,0.00,8,,129
2013-1-15,42,38,33,37,34,30,93,87,81,30.32,30.17,30.10,10,6,0,13,4,,0.00,8,,144
2013-1-16,37,35,33,36,32,28,93,87,81,30.34,30.09,29.65,10,8,1,15,3,,0.00,8,,99
2013-1-17,42,38,35,37,33,21,87,78,52,29.86,29.60,29.44,10,10,3,17,11,25,0.00,6,,170
2013-1-18,37,34,30,30,28,25,87,79,60,30.27,30.11,29.87,10,8,1,14,7,22,0.00,7,,135
2013-1-19,33,30,28,28,27,23,93,84,75,30.36,30.32,30.27,10,10,3,7,4,,0.00,6,,332
2013-1-20,33,32,30,30,28,27,93,84,80,30.33,30.21,30.11,10,9,5,7,1,,0.00,8,,337
2013-1-21,37,35,33,34,32,30,93,88,81,30.11,30.01,29.85,10,6,0,9,5,,0.00,8,,335
2013-1-22,37,34,32,34,32,28,93,87,81,29.85,29.70,29.61,10,8,0,8,1,,0.00,7,,335
2013-1-23,41,37,33,36,33,30,93,84,76,29.66,29.59,29.56,10,8,0,12,3,16,0.00,8,,137
2013-1-24,39,37,33,34,33,30,87,83,70,29.70,29.56,29.34,10,10,10,10,7,,0.00,7,,358
2013-1-25,39,36,33,36,33,28,93,87,81,29.52,29.41,29.32,10,9,1,7,2,,0.00,8,,331
2013-1-26,39,34,30,36,30,25,93,79,60,29.59,29.53,29.48,10,9,3,10,6,25,0.00,7,,168
2013-1-27,32,24,17,27,22,10,86,80,73,29.77,29.67,29.59,10,5,0,15,8,23,0.00,8,,156
2013-1-28,17,11,5,10,-2,-9,73,59,44,30.26,30.10,29.77,10,9,2,22,13,33,0.00,4,,339
2013-1-29,23,16,10,19,11,1,86,79,67,30.19,30.00,29.90,10,2,0,8,4,,0.00,8,,345
2013-1-30,30,26,23,27,24,19,93,85,80,30.17,30.10,29.90,10,4,0,8,4,,0.00,8,,335
2013-1-31,35,32,28,34,29,25,93,87,81,30.09,29.96,29.87,10,7,0,7,0,,0.00,8,,9